Location: Nitra
(0.0000°N, 18.0833°E)
Time: 20:25:34
(UTC+02:00)

A-11 Canister half - Pass Details

Date: 01 April 2023
Orbit: 1526 x 1682 km, 47.3° (Epoch: 08 June)

Event Time Altitude Azimuth Distance (km) Brightness Sun altitude
Rises 09:42:29 0° 189° (S) 4,822 11.5 42.5°
Reaches altitude 10° 09:47:29 10° 167° (SSE) 3,867 11.3 43.8°
Maximum altitude 09:52:50 16° 134° (SE) 3,457 11.5 45.1°
Drops below altitude 10° 09:58:14 10° 101° (E) 3,918 12.1 46.5°
Sets 10:03:16 0° 80° (E) 4,920 12.3 47.7°
